Date String (YYYY-MM-DD hh:mm:ss) UTC,Instrument flags,absolute air pressure of the measurement (hPa),sample flow rate (lpm),inlet stack bypass flow (lpm),air temperature of the measurement (°C),ambient temperature measured by the external sensor (°C),aerosol sample conditioner tube jacket temperature (°C),OPC LED temperature (°C),internal box temperature (°C),relative humidity of the measurement (%),span deviation,mass concentration of particles derived from Lorenz-Mie calculation of OPC scattering (μg/m³),mass concentration of particles derived from Lorenz-Mie calculation of OPC scattering (μg/m³),mass concentration of particles derived from Lorenz-Mie calculation of OPC scattering (μg/m³)
DateTimeUTC,F1_M11,P_M11,Q1_M11,Q2_M11,T1_M11,T2_M11,T3_M11,T4_M11,T5_M11,U1_M11,ZSPAN_M11,X0_M11,X2_M11,X1_M11
2024-04-11 23:00:00,SystemResetWarning,0829.1,5.01,000.00,025.7,023.9,000.0,034.4,027.2,012.8,0000.0,0024.83,0007.00,0004.60
2024-04-11 23:01:00,SystemResetWarning,0829.0,5.00,000.00,025.7,024.1,000.0,034.4,027.4,012.6,0000.0,0023.44,0007.02,0004.61
2024-04-11 23:02:00,SystemResetWarning,0829.1,5.00,000.00,025.7,024.4,000.0,034.3,027.5,012.7,0000.0,0021.97,0007.03,0004.66
2024-04-11 23:03:00,SystemResetWarning,0829.1,5.00,000.00,025.8,024.6,000.0,034.3,027.5,012.3,0000.0,0021.54,0006.94,0004.69
2024-04-11 23:04:00,SystemResetWarning,0829.1,5.00,000.00,025.8,024.8,000.0,034.3,027.6,012.5,0000.0,0022.82,0007.00,0004.72
2024-04-11 23:05:00,SystemResetWarning,0829.0,5.00,000.00,025.8,024.9,000.0,034.3,027.6,012.4,0000.0,0024.20,0007.07,0004.76
2024-04-11 23:06:00,SystemResetWarning,0829.0,5.00,000.00,025.9,025.0,000.0,034.3,027.7,012.2,0000.0,0024.46,0007.06,0004.79
2024-04-11 23:07:00,SystemResetWarning,0829.0,5.00,000.00,025.9,025.1,000.0,034.3,027.8,012.2,0000.0,0025.41,0007.13,0004.81
2024-04-11 23:08:00,SystemResetWarning,0829.0,4.99,000.00,026.0,025.2,000.0,034.3,027.8,012.2,0000.0,0025.84,0007.14,0004.81
2024-04-11 23:09:00,SystemResetWarning,0829.0,4.99,000.00,026.0,025.3,000.0,034.3,027.9,012.5,0001.0,0025.63,0007.14,0004.83
2024-04-11 23:10:00,SystemResetWarning,0828.9,4.99,000.00,026.0,025.4,000.0,034.3,027.9,012.3,0005.0,0024.66,0007.14,0004.85
2024-04-11 23:11:00,SystemResetWarning,0829.0,5.01,000.00,026.1,025.5,000.0,034.4,028.0,012.4,0002.8,0024.23,0007.22,0004.87
2024-04-11 23:12:00,SystemResetWarning,0829.0,5.01,000.00,026.1,025.6,000.0,034.4,028.0,012.1,0003.5,0024.00,0007.16,0004.88
2024-04-11 23:13:00,SystemResetWarning,0829.0,5.00,000.00,026.2,025.6,000.0,034.4,028.1,012.2,0002.1,0024.04,0007.12,0004.86
2024-04-11 23:14:00,SystemResetWarning,0829.0,4.99,000.00,026.2,025.6,000.0,034.4,028.1,012.2,0002.8,0024.24,0007.20,0004.83
2024-04-11 23:15:00,SystemResetWarning,0829.0,5.01,000.00,026.2,025.7,000.0,034.5,028.1,011.9,0002.9,0021.97,0007.16,0004.81
2024-04-11 23:16:00,SystemResetWarning,0828.9,5.01,000.00,026.3,025.7,000.0,034.5,028.2,012.1,0001.7,0020.78,0007.13,0004.80
2024-04-11 23:17:00,SystemResetWarning,0829.0,5.01,000.00,026.3,025.7,000.0,034.5,028.2,012.3,0000.0,0020.49,0007.12,0004.78
2024-04-11 23:18:00,SystemResetWarning,0828.9,5.00,000.00,026.3,025.8,000.0,034.5,028.2,011.9,0000.0,0019.54,0007.08,0004.75
2024-04-11 23:19:00,SystemResetWarning,0829.0,5.00,000.00,026.4,025.8,000.0,034.6,028.3,012.0,0000.0,0019.62,0007.08,0004.74
2024-04-11 23:20:00,SystemResetWarning,0828.9,5.00,000.00,026.4,025.8,000.0,034.6,028.3,011.9,0000.0,0019.53,0007.09,0004.71
2024-04-11 23:21:00,SystemResetWarning,0829.0,5.00,000.00,026.4,025.9,000.0,034.6,028.3,011.9,0003.0,0019.49,0007.13,0004.69
2024-04-11 23:22:00,SystemResetWarning,0829.0,5.00,000.00,026.4,025.9,000.0,034.7,028.3,011.7,0007.0,0020.08,0007.05,0004.68
2024-04-11 23:23:00,SystemResetWarning,0829.0,5.00,000.00,026.5,025.9,000.0,034.7,028.4,011.6,0005.6,0022.52,0007.04,0004.67
2024-04-11 23:24:00,SystemResetWarning,0829.0,5.00,000.00,026.5,025.9,000.0,034.7,028.4,011.7,0005.4,0023.18,0007.08,0004.66
2024-04-11 23:25:00,SystemResetWarning,0829.1,5.00,000.00,026.5,026.0,000.0,034.7,028.4,012.0,0006.1,0023.06,0007.04,0004.66
2024-04-11 23:26:00,SystemResetWarning,0829.1,5.01,000.00,026.6,026.0,000.0,034.8,028.5,011.7,0002.6,0023.52,0007.07,0004.66
2024-04-11 23:27:00,SystemResetWarning,0829.1,5.00,000.00,026.6,026.0,000.0,034.8,028.5,011.6,0002.3,0024.21,0007.09,0004.67
2024-04-11 23:28:00,SystemResetWarning,0829.1,5.00,000.00,026.6,026.0,000.0,034.8,028.5,011.7,0003.5,0024.45,0007.09,0004.67
2024-04-11 23:29:00,SystemResetWarning,0829.1,5.00,000.00,026.6,025.8,000.0,034.9,028.3,011.7,0004.8,0025.12,0007.10,0004.67
2024-04-11 23:30:00,SystemResetWarning,0828.9,5.00,000.00,026.3,023.7,000.0,034.9,027.1,011.8,0005.9,0025.49,0007.17,0004.69
2024-04-11 23:31:00,SystemResetWarning,0828.9,5.02,000.00,025.9,022.7,000.0,034.9,026.5,012.0,0003.2,0025.20,0007.18,0004.68
2024-04-11 23:32:00,SystemResetWarning,0828.9,5.00,000.00,025.7,022.9,000.0,034.7,026.5,012.1,0002.6,0026.06,0007.17,0004.69
2024-04-11 23:33:00,SystemResetWarning,0828.9,5.00,000.00,025.7,023.3,000.0,034.6,026.9,012.3,0000.0,0026.81,0007.14,0004.69
2024-04-11 23:34:00,SystemResetWarning,0829.0,5.01,000.00,025.7,023.6,000.0,034.5,027.1,012.3,0000.0,0024.87,0007.17,0004.68
2024-04-11 23:35:00,SystemResetWarning,0829.0,5.00,000.00,025.7,024.0,000.0,034.5,027.3,012.3,0000.0,0023.82,0007.19,0004.68
2024-04-11 23:36:00,SystemResetWarning,0829.0,4.99,000.00,025.7,024.3,000.0,034.4,027.4,012.3,0000.0,0024.16,0007.21,0004.67
2024-04-11 23:37:00,SystemResetWarning,0829.0,5.00,000.00,025.8,024.5,000.0,034.4,027.6,012.3,0000.0,0024.97,0007.24,0004.65
2024-04-11 23:38:00,SystemResetWarning,0829.1,5.00,000.00,025.8,024.7,000.0,034.4,027.6,012.3,0000.0,0024.78,0007.21,0004.60
2024-04-11 23:39:00,SystemResetWarning,0829.1,5.01,000.00,025.9,024.9,000.0,034.3,027.7,012.0,0007.7,0023.78,0007.19,0004.56
2024-04-11 23:40:00,SystemResetWarning,0829.1,5.00,000.00,025.9,025.0,000.0,034.3,027.8,012.0,0006.4,0023.26,0007.13,0004.55
2024-04-11 23:41:00,SystemResetWarning,0829.1,4.99,000.00,025.9,025.2,000.0,034.4,027.8,012.1,0005.8,0023.48,0007.02,0004.51
2024-04-11 23:42:00,SystemResetWarning,0829.1,4.99,000.00,026.0,025.3,000.0,034.4,027.9,012.1,0005.5,0025.52,0006.97,0004.47
2024-04-11 23:43:00,SystemResetWarning,0829.1,5.00,000.00,026.0,025.4,000.0,034.4,027.9,012.1,0005.0,0025.04,0006.92,0004.42
2024-04-11 23:44:00,SystemResetWarning,0829.1,5.00,000.00,026.1,025.4,000.0,034.4,028.0,012.3,0004.4,0024.03,0006.90,0004.36
2024-04-11 23:45:00,SystemResetWarning,0829.1,5.00,000.00,026.1,025.5,000.0,034.4,028.0,012.3,0004.5,0023.38,0006.80,0004.31
2024-04-11 23:46:00,SystemResetWarning,0829.1,5.00,000.00,026.2,025.6,000.0,034.4,028.1,012.0,0004.5,0023.72,0006.71,0004.27
2024-04-11 23:47:00,SystemResetWarning,0829.1,5.00,000.00,026.2,025.6,000.0,034.5,028.1,012.0,0003.9,0024.37,0006.66,0004.25
2024-04-11 23:48:00,SystemResetWarning,0829.1,5.00,000.00,026.2,025.7,000.0,034.5,028.1,011.6,0005.1,0024.27,0006.68,0004.25
2024-04-11 23:49:00,SystemResetWarning,0829.1,5.01,000.00,026.3,025.7,000.0,034.5,028.2,011.5,0000.7,0023.96,0006.64,0004.28
2024-04-11 23:50:00,SystemResetWarning,0829.1,5.00,000.00,026.3,025.7,000.0,034.5,028.2,011.8,0000.0,0025.04,0006.60,0004.27
2024-04-11 23:51:00,SystemResetWarning,0829.1,5.01,000.00,026.3,025.8,000.0,034.6,028.2,012.2,0000.0,0025.54,0006.64,0004.27
2024-04-11 23:52:00,SystemResetWarning,0829.1,5.00,000.00,026.4,025.8,000.0,034.6,028.3,012.0,0000.0,0026.54,0006.63,0004.25
2024-04-11 23:53:00,SystemResetWarning,0829.1,5.00,000.00,026.4,025.9,000.0,034.6,028.3,011.7,0000.0,0025.10,0006.65,0004.25
2024-04-11 23:54:00,SystemResetWarning,0829.1,4.98,000.00,026.4,025.9,000.0,034.6,028.3,011.7,0000.0,0025.21,0006.68,0004.26
2024-04-11 23:55:00,SystemResetWarning,0829.1,5.00,000.00,026.5,025.9,000.0,034.7,028.4,012.0,0000.0,0025.24,0006.71,0004.29
2024-04-11 23:56:00,SystemResetWarning,0829.1,5.01,000.00,026.5,025.9,000.0,034.7,028.3,011.9,0000.0,0026.91,0006.77,0004.29
2024-04-11 23:57:00,SystemResetWarning,0829.0,4.99,000.00,026.3,024.0,000.0,034.8,027.2,012.0,0004.0,0026.46,0006.82,0004.30
2024-04-11 23:58:00,SystemResetWarning,0828.9,5.02,000.00,025.8,022.6,000.0,034.8,026.4,012.4,0002.0,0026.95,0006.79,0004.30
2024-04-11 23:59:00,SystemResetWarning,0828.9,4.99,000.00,025.6,022.8,000.0,034.7,026.4,012.3,0000.0,0027.71,0006.73,0004.27
